Location: ??????
(33.3472°N, 35.4764°E)
Time: 10:44:16
(UTC+00:00)

IUS-1 SRM-2 - Pass Details

Date: 21 August 2019
Orbit: 283 x 21289 km, 25.9° (Epoch: 15 September)

Event Time Altitude Azimuth Distance (km) Brightness Sun altitude
Exits shadow 01:52:23 23° 219° (SW) 1,206 3.5 -14.9°
Maximum altitude 01:53:07 25° 198° (SSW) 1,022 3.3 -14.8°
Drops below altitude 10° 01:55:15 10° 137° (SE) 1,291 4.4 -14.4°
Sets 01:56:47 0° 119° (ESE) 1,950 5.7 -14.1°
